Location: Unspecified
(0.0000°N, 0.0000°E)
Time: 22:20:58
(UTC+00:00)

Courier 1B Rocket - All Passes

Search period start: 13 December 2017 00:00
Search period end: 23 December 2017 00:00
Orbit: 920 x 1202 km, 28.2° (Epoch: 12 December)

Date Brightness Start Highest point End Pass type
(mag) Time Alt. Az. Time Alt. Az. Time Alt. Az.
13 Dec - 01:47:02 10° WSW 01:51:07 17° SSW 01:55:22 10° SSE visible
13 Dec - 07:35:30 10° S 07:38:43 13° SSE 07:41:57 10° SE daylight
13 Dec - 09:26:20 10° SW 09:33:27 37° SSE 09:40:27 10° E daylight
13 Dec - 11:19:36 10° WSW 11:27:25 73° NNW 11:34:54 10° NE daylight
13 Dec - 13:15:42 10° WNW 13:21:24 23° NNW 13:26:52 10° NNE daylight
13 Dec - 20:57:40 10° NNW 21:02:38 24° NNE 21:07:37 10° E night (unlit)
13 Dec - 22:49:52 10° WNW 22:56:07 87° SSW 23:02:37 10° ESE night (unlit)
14 Dec - 00:44:44 10° WSW 00:49:46 24° SSW 00:55:02 10° SSE night (unlit)
14 Dec - 08:25:42 10° SSW 08:31:59 26° SSE 08:38:15 10° E daylight
14 Dec - 10:18:13 10° SW 10:26:07 79° SSE 10:33:47 10° ENE daylight
14 Dec - 12:13:12 10° W 12:20:01 33° NNW 12:26:34 10° NNE daylight
14 Dec - 14:13:29 10° NNW 14:14:34 10° NNW 14:15:38 10° NNW daylight
14 Dec - 19:57:39 10° NNW 20:01:26 16° NNE 20:05:11 10° ENE visible
14 Dec - 21:49:00 10° NW 21:55:09 60° NNE 22:01:23 10° ESE night (unlit)
14 Dec - 23:42:56 10° W 23:48:36 35° SSW 23:54:29 10° SE night (unlit)
15 Dec - 01:41:24 10° SSW 01:42:55 11° SSW 01:44:27 10° S visible
15 Dec - 07:25:24 10° SSW 07:30:24 18° SSE 07:35:29 10° ESE daylight
15 Dec - 09:17:08 10° SW 09:24:45 55° SSE 09:32:20 10° ENE daylight
15 Dec - 11:11:09 10° WSW 11:18:40 49° NNW 11:25:57 10° NE daylight
15 Dec - 13:08:39 10° WNW 13:12:57 16° NNW 13:17:09 10° N daylight
15 Dec - 18:58:28 10° N 19:00:04 11° NNE 19:01:41 10° NE visible
15 Dec - 20:48:21 10° NW 20:54:09 38° NNE 20:59:55 10° E visible
15 Dec - 22:41:28 10° WNW 22:47:32 54° SSW 22:53:46 10° SE night (unlit)
16 Dec - 00:37:49 10° WSW 00:41:26 15° SSW 00:45:09 10° SSE night (unlit)
16 Dec - 06:25:43 10° S 06:28:45 13° SSE 06:31:49 10° SE daylight
16 Dec - 08:16:19 10° SW 08:23:22 38° SSE 08:30:30 10° E daylight
16 Dec - 10:09:30 10° WSW 10:17:20 72° NNW 10:25:02 10° NE daylight
16 Dec - 12:05:32 10° WNW 12:11:26 23° NNW 12:17:09 10° NNE daylight
16 Dec - 19:47:54 10° NNW 19:53:04 25° NNE 19:58:07 10° E visible
16 Dec - 21:40:18 10° WNW 21:46:34 84° SSW 21:52:52 10° ESE night (unlit)
16 Dec - 23:35:23 10° WSW 23:40:09 22° SSW 23:45:03 10° SSE night (unlit)
17 Dec - 07:15:47 10° SSW 07:21:55 26° SSE 07:28:13 10° E daylight
17 Dec - 09:08:11 10° WSW 09:15:59 81° SSE 09:23:50 10° ENE daylight
17 Dec - 11:03:05 10° W 11:09:59 33° NNW 11:16:44 10° NNE daylight
17 Dec - 13:02:49 10° NW 13:04:41 11° NNW 13:06:31 10° N daylight
17 Dec - 18:47:41 10° NNW 18:51:50 17° NNE 18:55:51 10° ENE visible
17 Dec - 20:39:20 10° NW 20:45:36 63° NNE 20:51:46 10° ESE visible
17 Dec - 22:33:27 10° W 22:39:01 33° SSW 22:44:40 10° SE night (unlit)
18 Dec - 06:15:37 10° SSW 06:20:25 18° SSE 06:25:21 10° ESE daylight
18 Dec - 08:07:11 10° SW 08:14:39 56° SSE 08:22:18 10° ENE daylight
18 Dec - 10:01:07 10° WSW 10:08:34 48° NNW 10:16:01 10° NE daylight
18 Dec - 11:58:30 10° WNW 12:02:59 16° NNW 12:07:25 10° NNE daylight
18 Dec - 17:48:00 10° N 17:50:25 12° NNE 17:52:49 10° NE daylight
18 Dec - 19:38:34 10° NW 19:44:35 40° NNE 19:50:24 10° E visible
18 Dec - 21:31:54 10° WNW 21:38:00 52° SSW 21:44:04 10° SE visible
18 Dec - 23:28:34 10° SW 23:31:49 14° SSW 23:35:07 10° S night (unlit)
19 Dec - 05:16:12 10° S 05:18:50 12° SSE 05:21:31 10° SE visible
19 Dec - 07:06:28 10° SW 07:13:18 38° SSE 07:20:24 10° E daylight
19 Dec - 08:59:32 10° WSW 09:07:13 70° NNW 09:15:01 10° NE daylight
19 Dec - 10:55:29 10° WNW 11:01:24 23° NNW 11:07:17 10° NNE daylight
19 Dec - 18:37:57 10° NNW 18:43:27 27° NNE 18:48:43 10° E visible
19 Dec - 20:30:36 10° WNW 20:37:01 82° SSW 20:43:16 10° ESE visible
19 Dec - 22:25:55 10° WSW 22:30:34 21° SSW 22:35:13 10° SSE night (unlit)
20 Dec - 06:06:02 10° SSW 06:11:56 26° SSE 06:18:05 10° E daylight
20 Dec - 07:58:18 10° WSW 08:05:53 82° SSE 08:13:45 10° ENE daylight
20 Dec - 09:53:05 10° W 09:59:54 33° NNW 10:06:45 10° NNE daylight
20 Dec - 11:52:32 10° NW 11:54:44 11° NNW 11:56:55 10° N daylight
20 Dec - 17:37:34 10° NNW 17:42:10 19° NNE 17:46:35 10° ENE daylight
20 Dec - 19:29:30 10° NW 19:36:02 65° NNE 19:42:15 10° ESE visible
20 Dec - 21:23:52 10° W 21:29:27 32° SSW 21:34:58 10° SSE visible
21 Dec - 05:06:00 10° SSW 05:10:30 17° SSE 05:15:10 10° ESE visible
21 Dec - 06:57:23 10° SW 07:04:35 56° SSE 07:12:10 10° ENE daylight
21 Dec - 08:51:12 10° W 08:58:29 47° NNW 09:05:57 10° NE daylight
21 Dec - 10:48:29 10° WNW 10:52:59 16° NNW 10:57:29 10° NNE daylight
21 Dec - 16:37:30 10° N 16:40:42 13° NNE 16:43:50 10° NE daylight
21 Dec - 18:28:36 10° NW 18:34:57 42° NNE 18:40:58 10° E visible
21 Dec - 20:22:10 10° WNW 20:28:26 51° SSW 20:34:29 10° SE visible
21 Dec - 22:19:10 10° SW 22:22:13 14° SSW 22:25:16 10° S visible
22 Dec - 04:06:54 10° S 04:09:00 11° SSE 04:11:07 10° SE visible
22 Dec - 05:56:45 10° SW 06:03:19 38° SSE 06:10:15 10° E daylight
22 Dec - 07:49:42 10° WSW 07:57:08 68° NNW 08:04:53 10° NE daylight
22 Dec - 09:45:33 10° WNW 09:51:21 23° NNW 09:57:14 10° NNE daylight
22 Dec - 17:27:53 10° NNW 17:33:46 29° NNE 17:39:21 10° E daylight
22 Dec - 19:20:44 10° WNW 19:27:26 80° SSW 19:33:45 10° SE visible
22 Dec - 21:16:18 10° WSW 21:20:58 21° SSW 21:25:34 10° SSE visible
